| time (UTC) | temp F | wind direction | speed MPH | gust MPH | rain 1hr in | rain 24hr in | rain mn in | humidity % | barometer mb |
| 20260508160338 | 65 | 276 | 3.0 | 3.0 | 0.00 | 0.00 | 0.00 | 49 | 1019.9 |
| 20260508155110 | 65 | 253 | 3.0 | 4.0 | 0.00 | 0.00 | 0.00 | 45 | 1020.3 |
| 20260508154521 | 65 | 241 | 4.0 | 4.0 | 0.00 | 0.00 | 0.00 | 50 | 1020.3 |
| 20260508153937 | 64 | 257 | 6.0 | 8.0 | 0.00 | 0.00 | 0.00 | 49 | 1020.3 |
| 20260508153342 | 64 | 247 | 4.0 | 6.0 | 0.00 | 0.00 | 0.00 | 50 | 1020.3 |
| 20260508152746 | 62 | 237 | 2.0 | 3.0 | 0.00 | 0.00 | 0.00 | 50 | 1020.3 |
| 20260508151536 | 64 | 196 | 1.0 | 2.0 | 0.00 | 0.00 | 0.00 | 51 | 1020.3 |
| 20260508150945 | 62 | 243 | 6.0 | 7.0 | 0.00 | 0.00 | 0.00 | 54 | 1020.3 |
| 20260508145746 | 61 | 179 | 4.0 | 5.0 | 0.00 | 0.00 | 0.00 | 55 | 1020.3 |
| 20260508145148 | 60 | 258 | 2.0 | 3.0 | 0.00 | 0.00 | 0.00 | 56 | 1020.3 |
| 20260508143942 | 59 | 237 | 3.0 | 4.0 | 0.00 | 0.00 | 0.00 | 56 | 1020.3 |
| 20260508142727 | 57 | 261 | 4.0 | 6.0 | 0.00 | 0.00 | 0.00 | 59 | 1020.3 |
| 20260508142149 | 57 | 255 | 6.0 | 7.0 | 0.00 | 0.00 | 0.00 | 59 | 1020.3 |
| 20260508141518 | 57 | 266 | 3.0 | 4.0 | 0.00 | 0.00 | 0.00 | 63 | 1020.3 |
| 20260508140936 | 56 | 244 | 5.0 | 7.0 | 0.00 | 0.00 | 0.00 | 61 | 1020.3 |
| 20260508135748 | 54 | 245 | 4.0 | 5.0 | 0.00 | 0.00 | 0.00 | 63 | 1020.3 |
| 20260508135146 | 54 | 241 | 5.0 | 6.0 | 0.00 | 0.00 | 0.00 | 64 | 1020.3 |
| 20260508134522 | 53 | 238 | 8.0 | 9.0 | 0.00 | 0.00 | 0.00 | 63 | 1020.3 |
| 20260508133916 | 53 | 227 | 3.0 | 4.0 | 0.00 | 0.00 | 0.00 | 66 | 1020.3 |
| 20260508133312 | 52 | 219 | 2.0 | 3.0 | 0.00 | 0.00 | 0.00 | 69 | 1020.3 |
| 20260508132726 | 52 | 254 | 3.0 | 4.0 | 0.00 | 0.00 | 0.00 | 69 | 1020.3 |
| 20260508132122 | 51 | 208 | 5.0 | 7.0 | 0.00 | 0.00 | 0.00 | 69 | 1020.6 |
| 20260508130308 | 49 | 226 | 5.0 | 7.0 | 0.00 | 0.00 | 0.00 | 73 | 1020.6 |
| 20260508125126 | 48 | 231 | 3.0 | 4.0 | 0.00 | 0.00 | 0.00 | 75 | 1020.6 |
| 20260508123936 | 47 | 189 | 5.0 | 6.0 | 0.00 | 0.00 | 0.00 | 75 | 1020.6 |
| 20260508123350 | 47 | 231 | 5.0 | 7.0 | 0.00 | 0.00 | 0.00 | 76 | 1020.3 |
| 20260508122731 | 47 | 197 | 5.0 | 6.0 | 0.00 | 0.00 | 0.00 | 78 | 1020.3 |
| 20260508122120 | 47 | 204 | 5.0 | 5.0 | 0.00 | 0.00 | 0.00 | 77 | 1020.3 |
| 20260508121538 | 46 | 208 | 4.0 | 5.0 | 0.00 | 0.00 | 0.00 | 77 | 1020.3 |
| 20260508120920 | 46 | 227 | 2.0 | 3.0 | 0.00 | 0.00 | 0.00 | 79 | 1020.3 |
| 20260508115710 | 44 | 232 | 0.0 | 2.0 | 0.00 | 0.00 | 0.00 | 84 | 1019.9 |
| 20260508115148 | 43 | 136 | 0.0 | 1.0 | 0.00 | 0.00 | 0.00 | 84 | 1020.3 |
| 20260508114519 | 42 | 157 | 1.0 | 2.0 | 0.00 | 0.00 | 0.00 | 85 | 1020.3 |
| 20260508113930 | 42 | 222 | 2.0 | 2.0 | 0.00 | 0.00 | 0.00 | 86 | 1019.9 |
| 20260508113316 | 42 | 226 | 3.0 | 4.0 | 0.00 | 0.00 | 0.00 | 86 | 1019.9 |
| 20260508112719 | 41 | 220 | 0.0 | 2.0 | 0.00 | 0.00 | 0.00 | 86 | 1019.9 |
| 20260508112143 | 41 | 188 | 1.0 | 2.0 | 0.00 | 0.00 | 0.00 | 87 | 1019.9 |
| 20260508111542 | 41 | 194 | 1.0 | 2.0 | 0.00 | 0.00 | 0.00 | 86 | 1019.9 |
| 20260508110922 | 41 | 219 | 0.0 | 1.0 | 0.00 | 0.00 | 0.00 | 87 | 1019.9 |
| 20260508110326 | 40 | 197 | 1.0 | 2.0 | 0.00 | 0.00 | 0.00 | 88 | 1019.6 |
| 20260508105142 | 40 | 216 | 1.0 | 2.0 | 0.00 | 0.00 | 0.00 | 88 | 1019.6 |
| 20260508103936 | 40 | 236 | 2.0 | 3.0 | 0.00 | 0.00 | 0.00 | 88 | 1019.3 |
| 20260508103338 | 40 | 218 | 2.0 | 2.0 | 0.00 | 0.00 | 0.00 | 88 | 1019.3 |
| 20260508102715 | 40 | 166 | 2.0 | 4.0 | 0.00 | 0.00 | 0.00 | 88 | 1019.3 |
| 20260508102115 | 40 | 231 | 1.0 | 1.0 | 0.00 | 0.00 | 0.00 | 88 | 1019.3 |
| 20260508101512 | 40 | 246 | 1.0 | 2.0 | 0.00 | 0.00 | 0.00 | 88 | 1019.3 |
| 20260508100938 | 40 | 246 | 3.0 | 4.0 | 0.00 | 0.00 | 0.00 | 88 | 1019.3 |
| 20260508100331 | 40 | 231 | 1.0 | 2.0 | 0.00 | 0.00 | 0.00 | 88 | 1019.3 |
| 20260508095748 | 40 | 230 | 1.0 | 2.0 | 0.00 | 0.00 | 0.00 | 88 | 1018.9 |
| 20260508095130 | 40 | 240 | 1.0 | 2.0 | 0.00 | 0.00 | 0.00 | 88 | 1019.3 |
| 20260508094522 | 40 | 226 | 1.0 | 2.0 | 0.00 | 0.00 | 0.00 | 88 | 1019.3 |
| 20260508093943 | 40 | 232 | 1.0 | 2.0 | 0.00 | 0.00 | 0.00 | 88 | 1019.3 |
| 20260508092722 | 41 | 231 | 0.0 | 1.0 | 0.00 | 0.00 | 0.00 | 88 | 1019.3 |
| 20260508092142 | 41 | 199 | 2.0 | 2.0 | 0.00 | 0.00 | 0.00 | 88 | 1019.3 |
| 20260508091528 | 41 | 145 | 1.0 | 2.0 | 0.00 | 0.00 | 0.00 | 88 | 1019.3 |
| 20260508090932 | 41 | 267 | 1.0 | 2.0 | 0.00 | 0.00 | 0.00 | 88 | 1019.3 |
| 20260508085139 | 41 | 217 | 2.0 | 2.0 | 0.00 | 0.00 | 0.00 | 87 | 1018.9 |
| 20260508084547 | 41 | 202 | 2.0 | 2.0 | 0.00 | 0.00 | 0.00 | 87 | 1018.9 |
| 20260508083912 | 41 | 217 | 2.0 | 3.0 | 0.00 | 0.00 | 0.00 | 87 | 1018.9 |
| 20260508083313 | 41 | 218 | 2.0 | 3.0 | 0.00 | 0.00 | 0.00 | 85 | 1018.9 |
| 20260508082735 | 42 | 174 | 1.0 | 2.0 | 0.00 | 0.00 | 0.00 | 84 | 1018.9 |
| 20260508082150 | 42 | 173 | 1.0 | 2.0 | 0.00 | 0.00 | 0.00 | 84 | 1018.9 |
| 20260508081537 | 42 | 232 | 1.0 | 1.0 | 0.00 | 0.00 | 0.00 | 83 | 1018.9 |
| 20260508080328 | 42 | 164 | 2.0 | 2.0 | 0.00 | 0.00 | 0.00 | 81 | 1018.9 |
| 20260508075731 | 42 | 189 | 0.0 | 2.0 | 0.00 | 0.00 | 0.00 | 81 | 1018.9 |
| 20260508075120 | 43 | 252 | 1.0 | 2.0 | 0.00 | 0.00 | 0.00 | 81 | 1018.9 |
| 20260508074529 | 43 | 238 | 1.0 | 2.0 | 0.00 | 0.00 | 0.00 | 80 | 1018.9 |
| 20260508073327 | 43 | 203 | 0.0 | 1.0 | 0.00 | 0.00 | 0.00 | 80 | 1018.9 |
| 20260508072733 | 43 | 164 | 1.0 | 2.0 | 0.00 | 0.00 | 0.00 | 80 | 1018.9 |
| 20260508072115 | 43 | 190 | 0.0 | 2.0 | 0.00 | 0.00 | 0.00 | 79 | 1018.9 |
| 20260508071537 | 44 | 238 | 1.0 | 1.0 | 0.00 | 0.00 | 0.00 | 78 | 1018.9 |
| 20260508070951 | 44 | 169 | 2.0 | 4.0 | 0.00 | 0.00 | 0.00 | 77 | 1018.6 |
| 20260508070338 | 44 | 166 | 2.0 | 2.0 | 0.00 | 0.00 | 0.00 | 76 | 1018.9 |
| 20260508065738 | 45 | 232 | 1.0 | 2.0 | 0.00 | 0.00 | 0.00 | 74 | 1018.6 |
| 20260508065133 | 45 | 238 | 2.0 | 2.0 | 0.00 | 0.00 | 0.00 | 73 | 1018.6 |
| 20260508064520 | 45 | 168 | 2.0 | 2.0 | 0.00 | 0.00 | 0.00 | 73 | 1018.9 |
| 20260508063925 | 45 | 182 | 1.0 | 2.0 | 0.00 | 0.00 | 0.00 | 72 | 1018.9 |
| 20260508063318 | 45 | 157 | 1.0 | 2.0 | 0.00 | 0.00 | 0.00 | 72 | 1018.9 |
| 20260508062742 | 45 | 146 | 1.0 | 2.0 | 0.00 | 0.00 | 0.00 | 72 | 1018.9 |
| 20260508062146 | 45 | 213 | 2.0 | 2.0 | 0.00 | 0.00 | 0.00 | 70 | 1018.9 |
| 20260508061530 | 45 | 165 | 1.0 | 2.0 | 0.00 | 0.00 | 0.00 | 70 | 1018.9 |
| 20260508060909 | 46 | 95 | 1.0 | 2.0 | 0.00 | 0.00 | 0.00 | 69 | 1019.3 |
| 20260508060341 | 46 | 180 | 2.0 | 3.0 | 0.00 | 0.00 | 0.00 | 69 | 1019.3 |
| 20260508055751 | 46 | 111 | 3.0 | 4.0 | 0.00 | 0.00 | 0.00 | 70 | 1018.9 |
| 20260508055141 | 45 | 136 | 2.0 | 3.0 | 0.00 | 0.00 | 0.00 | 72 | 1018.9 |
| 20260508054544 | 46 | 139 | 2.0 | 2.0 | 0.00 | 0.00 | 0.00 | 70 | 1019.3 |
| 20260508052738 | 44 | 172 | 1.0 | 2.0 | 0.00 | 0.00 | 0.00 | 72 | 1018.9 |
| 20260508052132 | 44 | 233 | 0.0 | 0.0 | 0.00 | 0.00 | 0.00 | 69 | 1018.9 |
| 20260508051526 | 44 | 225 | 0.0 | 0.0 | 0.00 | 0.00 | 0.00 | 67 | 1018.9 |
| 20260508050945 | 45 | 231 | 0.0 | 1.0 | 0.00 | 0.00 | 0.00 | 65 | 1018.9 |
| 20260508050309 | 45 | 220 | 0.0 | 1.0 | 0.00 | 0.00 | 0.00 | 67 | 1018.9 |
| 20260508045724 | 45 | 229 | 0.0 | 0.0 | 0.00 | 0.00 | 0.00 | 69 | 1018.9 |
| 20260508045128 | 46 | 220 | 0.0 | 0.0 | 0.00 | 0.00 | 0.00 | 69 | 1018.6 |
| 20260508044542 | 46 | 179 | 0.0 | 0.0 | 0.00 | 0.00 | 0.00 | 65 | 1018.9 |
| 20260508043936 | 47 | 115 | 0.0 | 0.0 | 0.00 | 0.00 | 0.00 | 59 | 1018.9 |
| 20260508043347 | 47 | 119 | 0.0 | 0.0 | 0.00 | 0.00 | 0.00 | 57 | 1018.9 |
| 20260508042723 | 46 | 107 | 0.0 | 0.0 | 0.00 | 0.00 | 0.00 | 58 | 1018.9 |
| 20260508042141 | 46 | 164 | 0.0 | 0.0 | 0.00 | 0.00 | 0.00 | 59 | 1018.6 |
| 20260508041532 | 47 | 102 | 0.0 | 1.0 | 0.00 | 0.00 | 0.00 | 59 | 1018.9 |
| 20260508040318 | 48 | 87 | 1.0 | 2.0 | 0.00 | 0.00 | 0.00 | 59 | 1018.9 |
| 20260508035120 | 49 | 90 | 0.0 | 1.0 | 0.00 | 0.00 | 0.00 | 54 | 1018.6 |
| 20260508034526 | 49 | 353 | 0.0 | 1.0 | 0.00 | 0.00 | 0.00 | 52 | 1018.9 |
| 20260508033916 | 50 | 346 | 0.0 | 1.0 | 0.00 | 0.00 | 0.00 | 52 | 1018.9 |
| 20260508033321 | 50 | 102 | 0.0 | 0.0 | 0.00 | 0.00 | 0.00 | 53 | 1018.9 |
| 20260508032734 | 51 | 57 | 1.0 | 2.0 | 0.00 | 0.00 | 0.00 | 52 | 1018.9 |
| 20260508032147 | 51 | 47 | 0.0 | 2.0 | 0.00 | 0.00 | 0.00 | 51 | 1018.9 |
| 20260508031526 | 51 | 319 | 1.0 | 1.0 | 0.00 | 0.00 | 0.00 | 51 | 1018.9 |
| 20260508030931 | 51 | 23 | 1.0 | 2.0 | 0.00 | 0.00 | 0.00 | 50 | 1018.9 |
| 20260508030311 | 50 | 61 | 1.0 | 2.0 | 0.00 | 0.00 | 0.00 | 53 | 1018.9 |
| 20260508025719 | 49 | 67 | 0.0 | 1.0 | 0.00 | 0.00 | 0.00 | 54 | 1018.9 |
| 20260508025114 | 50 | 113 | 0.0 | 0.0 | 0.00 | 0.00 | 0.00 | 54 | 1018.9 |
| 20260508024525 | 50 | 97 | 0.0 | 0.0 | 0.00 | 0.00 | 0.00 | 52 | 1018.6 |
| 20260508023946 | 50 | 76 | 0.0 | 1.0 | 0.00 | 0.00 | 0.00 | 52 | 1018.6 |
| 20260508023341 | 50 | 68 | 0.0 | 1.0 | 0.00 | 0.00 | 0.00 | 52 | 1018.6 |
| 20260508022723 | 50 | 22 | 0.0 | 0.0 | 0.00 | 0.00 | 0.00 | 51 | 1018.2 |
| 20260508021515 | 52 | 42 | 1.0 | 2.0 | 0.00 | 0.00 | 0.00 | 49 | 1017.9 |
| 20260508020945 | 51 | 8 | 2.0 | 2.0 | 0.00 | 0.00 | 0.00 | 50 | 1017.9 |
| 20260508020349 | 51 | 73 | 0.0 | 0.0 | 0.00 | 0.00 | 0.00 | 51 | 1017.9 |
| 20260508015738 | 51 | 25 | 0.0 | 1.0 | 0.00 | 0.00 | 0.00 | 50 | 1017.9 |
| 20260508015145 | 52 | 38 | 0.0 | 1.0 | 0.00 | 0.00 | 0.00 | 49 | 1017.9 |
| 20260508014517 | 52 | 31 | 1.0 | 2.0 | 0.00 | 0.00 | 0.00 | 49 | 1017.9 |
| 20260508012725 | 53 | 55 | 0.0 | 1.0 | 0.00 | 0.00 | 0.00 | 48 | 1017.6 |
| 20260508011528 | 53 | 22 | 2.0 | 2.0 | 0.00 | 0.00 | 0.00 | 47 | 1017.6 |
| 20260508010935 | 53 | 44 | 2.0 | 3.0 | 0.00 | 0.00 | 0.00 | 47 | 1017.2 |
| 20260508010349 | 53 | 70 | 0.0 | 1.0 | 0.00 | 0.00 | 0.00 | 50 | 1017.2 |
| 20260508005736 | 53 | 73 | 0.0 | 0.0 | 0.00 | 0.00 | 0.00 | 48 | 1017.2 |
| 20260508003908 | 55 | 51 | 0.0 | 1.0 | 0.00 | 0.00 | 0.00 | 48 | 1017.2 |
| 20260508003340 | 55 | 351 | 1.0 | 2.0 | 0.00 | 0.00 | 0.00 | 46 | 1017.2 |
| 20260508002734 | 56 | 47 | 2.0 | 2.0 | 0.00 | 0.00 | 0.00 | 46 | 1017.2 |
| 20260508002111 | 56 | 273 | 0.0 | 1.0 | 0.00 | 0.00 | 0.00 | 47 | 1016.9 |
| 20260508001532 | 57 | 343 | 1.0 | 2.0 | 0.00 | 0.00 | 0.00 | 46 | 1016.9 |
| 20260508000949 | 57 | 6 | 2.0 | 3.0 | 0.00 | 0.00 | 0.00 | 44 | 1016.9 |
| 20260508000335 | 58 | 28 | 0.0 | 1.0 | 0.00 | 0.00 | 0.00 | 44 | 1016.9 |
| 20260507235747 | 58 | 285 | 0.0 | 0.0 | 0.00 | 0.00 | 0.00 | 44 | 1016.9 |
| 20260507235119 | 58 | 104 | 0.0 | 1.0 | 0.00 | 0.00 | 0.00 | 43 | 1016.9 |
| 20260507234551 | 59 | 323 | 0.0 | 1.0 | 0.00 | 0.00 | 0.00 | 41 | 1016.5 |
| 20260507233938 | 59 | 267 | 2.0 | 3.0 | 0.00 | 0.00 | 0.00 | 42 | 1016.5 |
| 20260507233347 | 60 | 189 | 3.0 | 4.0 | 0.00 | 0.00 | 0.00 | 42 | 1016.2 |
| 20260507231535 | 64 | 178 | 2.0 | 2.0 | 0.00 | 0.00 | 0.00 | 40 | 1016.5 |
| 20260507225744 | 64 | 259 | 9.0 | 13.0 | 0.00 | 0.00 | 0.00 | 39 | 1016.2 |
| 20260507225120 | 64 | 15 | 2.0 | 4.0 | 0.00 | 0.00 | 0.00 | 41 | 1016.5 |
| 20260507224527 | 64 | 253 | 2.0 | 4.0 | 0.00 | 0.00 | 0.00 | 41 | 1016.2 |
| 20260507223918 | 64 | 58 | 1.0 | 2.0 | 0.00 | 0.00 | 0.00 | 41 | 1016.2 |
| 20260507223338 | 66 | 244 | 1.0 | 2.0 | 0.00 | 0.00 | 0.00 | 43 | 1016.2 |
| 20260507222719 | 65 | 240 | 1.0 | 2.0 | 0.00 | 0.00 | 0.00 | 41 | 1016.2 |
| 20260507221516 | 65 | 293 | 3.0 | 5.0 | 0.00 | 0.00 | 0.00 | 39 | 1016.2 |
| 20260507220312 | 64 | 238 | 7.0 | 11.0 | 0.00 | 0.00 | 0.00 | 41 | 1016.2 |
| 20260507215738 | 65 | 268 | 3.0 | 4.0 | 0.00 | 0.00 | 0.00 | 41 | 1015.9 |
| 20260507215144 | 65 | 65 | 3.0 | 5.0 | 0.00 | 0.00 | 0.00 | 43 | 1015.9 |
| 20260507213944 | 65 | 244 | 1.0 | 2.0 | 0.00 | 0.00 | 0.00 | 43 | 1015.9 |
| 20260507212737 | 62 | 318 | 2.0 | 2.0 | 0.00 | 0.00 | 0.00 | 46 | 1015.9 |
| 20260507211532 | 62 | 213 | 6.0 | 7.0 | 0.00 | 0.00 | 0.00 | 44 | 1015.5 |
| 20260507210928 | 66 | 349 | 1.0 | 2.0 | 0.00 | 0.00 | 0.00 | 44 | 1015.5 |
| 20260507210344 | 64 | 272 | 4.0 | 6.0 | 0.00 | 0.00 | 0.00 | 44 | 1015.5 |
| 20260507204547 | 66 | 283 | 4.0 | 7.0 | 0.00 | 0.00 | 0.00 | 43 | 1015.5 |
| 20260507202737 | 65 | 233 | 5.0 | 7.0 | 0.00 | 0.00 | 0.00 | 42 | 1015.5 |
| 20260507202152 | 65 | 329 | 5.0 | 7.0 | 0.00 | 0.00 | 0.00 | 45 | 1015.5 |
| 20260507201538 | 66 | 227 | 3.0 | 4.0 | 0.00 | 0.00 | 0.00 | 44 | 1015.2 |
| 20260507200938 | 63 | 260 | 3.0 | 6.0 | 0.00 | 0.00 | 0.00 | 45 | 1015.5 |
| 20260507195752 | 65 | 35 | 3.0 | 5.0 | 0.00 | 0.00 | 0.00 | 43 | 1015.5 |
| 20260507195151 | 65 | 285 | 5.0 | 7.0 | 0.00 | 0.00 | 0.00 | 46 | 1015.5 |
| 20260507194514 | 64 | 231 | 8.0 | 11.0 | 0.00 | 0.00 | 0.00 | 43 | 1015.5 |
| 20260507193951 | 64 | 245 | 1.0 | 2.0 | 0.00 | 0.00 | 0.00 | 45 | 1015.5 |
| 20260507192732 | 63 | 205 | 9.0 | 12.0 | 0.00 | 0.00 | 0.00 | 45 | 1015.5 |
| 20260507192146 | 64 | 203 | 7.0 | 12.0 | 0.00 | 0.00 | 0.00 | 46 | 1015.9 |
| 20260507191535 | 64 | 238 | 4.0 | 4.0 | 0.00 | 0.00 | 0.00 | 48 | 1015.9 |
| 20260507190936 | 63 | 301 | 0.0 | 1.0 | 0.00 | 0.00 | 0.00 | 52 | 1015.9 |
| 20260507185724 | 62 | 225 | 5.0 | 6.0 | 0.00 | 0.00 | 0.00 | 46 | 1016.2 |
| 20260507185150 | 64 | 45 | 4.0 | 6.0 | 0.00 | 0.00 | 0.00 | 47 | 1015.9 |
| 20260507184549 | 62 | 167 | 2.0 | 3.0 | 0.00 | 0.00 | 0.00 | 49 | 1015.9 |
| 20260507183952 | 63 | 345 | 6.0 | 7.0 | 0.00 | 0.00 | 0.00 | 52 | 1016.2 |
| 20260507183308 | 63 | 210 | 5.0 | 7.0 | 0.00 | 0.00 | 0.00 | 50 | 1015.9 |
| 20260507182714 | 62 | 169 | 6.0 | 7.0 | 0.00 | 0.00 | 0.00 | 50 | 1016.2 |
| 20260507182150 | 61 | 223 | 5.0 | 7.0 | 0.00 | 0.00 | 0.00 | 56 | 1016.2 |
| 20260507181510 | 60 | 208 | 7.0 | 10.0 | 0.00 | 0.00 | 0.00 | 52 | 1016.2 |
| 20260507180928 | 61 | 237 | 6.0 | 8.0 | 0.00 | 0.00 | 0.00 | 52 | 1016.2 |
| 20260507180324 | 64 | 233 | 7.0 | 10.0 | 0.00 | 0.00 | 0.00 | 52 | 1016.2 |
| 20260507174520 | 60 | 240 | 2.0 | 2.0 | 0.00 | 0.00 | 0.00 | 51 | 1016.5 |
| 20260507173945 | 61 | 257 | 2.0 | 3.0 | 0.00 | 0.00 | 0.00 | 55 | 1016.9 |
| 20260507172732 | 60 | 225 | 6.0 | 8.0 | 0.00 | 0.00 | 0.00 | 54 | 1016.9 |
| 20260507172129 | 60 | 300 | 3.0 | 3.0 | 0.00 | 0.00 | 0.00 | 54 | 1016.9 |
| 20260507170911 | 60 | 237 | 7.0 | 9.0 | 0.00 | 0.00 | 0.00 | 57 | 1016.9 |
| 20260507170321 | 60 | 280 | 3.0 | 3.0 | 0.00 | 0.00 | 0.00 | 56 | 1016.9 |
| 20260507165750 | 60 | 307 | 0.0 | 0.0 | 0.00 | 0.00 | 0.00 | 57 | 1017.2 |
| 20260507165135 | 61 | 282 | 4.0 | 5.0 | 0.00 | 0.00 | 0.00 | 57 | 1016.9 |
| 20260507163923 | 62 | 303 | 1.0 | 2.0 | 0.00 | 0.00 | 0.00 | 54 | 1017.2 |
| 20260507162722 | 59 | 27 | 4.0 | 7.0 | 0.00 | 0.00 | 0.00 | 61 | 1017.2 |
| 20260507162152 | 59 | 204 | 3.0 | 4.0 | 0.00 | 0.00 | 0.00 | 58 | 1017.2 |
| 20260507161555 | 60 | 184 | 1.0 | 2.0 | 0.00 | 0.00 | 0.00 | 60 | 1017.2 |
| 20260507160923 | 60 | 52 | 2.0 | 2.0 | 0.00 | 0.00 | 0.00 | 58 | 1017.2 |